Change the Weather History Date:

Sunday, March 10, 2013

  Actual Average Record
Temperature  
Mean Temperature 47 °F -  
Max Temperature 58 °F - - ()
Min Temperature 36 °F - - ()
Degree Days  
Heating Degree Days 18    
Moisture  
Dew Point 35 °F    
Average Humidity 58    
Maximum Humidity 75    
Minimum Humidity 38    
Precipitation  
Precipitation 0.00 in - - ()
Sea Level Pressure  
Sea Level Pressure 29.94 in    
Wind  
Wind Speed 11 mph ()    
Max Wind Speed 17 mph    
Max Gust Speed 25 mph    
T = Trace of Precipitation, MM = Missing Value Source: Averaged Metar Reports

Daily Weather History Graph

Daily Weather History Graph

Search for Another Location

Airport or City:

Trip Planner

Search our weather history database for the weather conditions in past years. The results will help you decide how hot, cold, wet, or windy it might be!

Date:

Astronomy

Mar. 10, 2013 Rise Set
Actual Time 7:47 AM EDT 7:27 PM EDT
Civil Twilight 7:18 AM EDT 7:55 PM EDT
Nautical Twilight 6:45 AM EDT 8:29 PM EDT
Astronomical Twilight 6:12 AM EDT 9:02 PM EDT
Moon 6:48 AM EDT (3/10) 6:33 PM EDT (3/10)
Length of Visible Light 12h 36m
Length of Day
11h 39m
Waning Crescent, 2% of the Moon is Illuminated
Mar 10
Waning Crescent
Mar 11
New
Mar 19
First Quarter
Mar 27
Full
Apr 3
Last Quarter

Hourly Weather History & Observations

Time (EDT) Temp. Windchill Dew Point Humidity Pressure Visibility Wind Dir Wind Speed Gust Speed Precip Events Conditions
12:00 AM 39.2 °F 30.8 °F 28.9 °F 67% 30.06 in - SE 15.0 mph 21.9 mph N/A   Unknown
1:00 AM 40 °F - 29 °F 55% 30.07 in - SE 12.7 mph - -  
1:00 AM 39.9 °F 32.5 °F 29.5 °F 66% 30.07 in - SE 12.7 mph - N/A   Unknown
3:00 AM 39.0 °F 31.8 °F 31.8 °F 75% 30.06 in - SE 11.5 mph - N/A   Unknown
4:00 AM 39.9 °F 33.4 °F 31.5 °F 72% 30.02 in - SE 10.4 mph - N/A   Unknown
5:00 AM 40.1 °F 33.2 °F 30.0 °F 67% 30.00 in - SE 11.5 mph - N/A   Unknown
6:00 AM 41.9 °F 35.9 °F 29.3 °F 61% 29.97 in - SSE 10.4 mph - N/A   Unknown
7:00 AM 43.2 °F 37.0 °F 28.8 °F 57% 29.96 in - SSE 11.5 mph 19.6 mph N/A   Unknown
8:00 AM 44 °F - 29 °F 42% 29.95 in - SSE 12.7 mph - -  
9:00 AM 44.4 °F 39.0 °F 29.3 °F 55% 29.95 in - SSE 10.4 mph - N/A   Unknown
10:00 AM 46.9 °F - 30.4 °F 53% 29.95 in - South 11.5 mph 17.3 mph N/A   Unknown
11:00 AM 49.3 °F - 31.5 °F 50% 29.95 in - South 16.1 mph 25.3 mph N/A   Unknown
12:00 PM 53.2 °F - 35.1 °F 50% 29.92 in - South 17.3 mph 24.2 mph N/A   Unknown
1:00 PM 55.2 °F - 36.1 °F 49% 29.92 in - South 15.0 mph 24.2 mph N/A   Unknown
2:00 PM 57 °F - 38 °F 38% 29.90 in - South 16.1 mph - -  
2:00 PM 57.0 °F - 38.3 °F 50% 29.90 in - South 16.1 mph 23.0 mph N/A   Unknown
3:00 PM 56.7 °F - 39.7 °F 53% 29.88 in - South 13.8 mph 21.9 mph N/A   Unknown
4:00 PM 55.4 °F - 39.4 °F 55% 29.89 in - South 15.0 mph 20.7 mph N/A   Unknown
5:00 PM 54.3 °F - 38.5 °F 55% 29.90 in - SSW 13.8 mph 21.9 mph N/A   Unknown
6:00 PM 53.6 °F - 39.6 °F 59% 29.90 in - South 11.5 mph - N/A   Unknown
7:00 PM 53.6 °F - 39.9 °F 60% 29.89 in - South 8.1 mph - N/A   Unknown
8:00 PM 53 °F - 41 °F 53% 29.91 in - SSE 4.6 mph - -  
8:00 PM 52.9 °F - 40.8 °F 64% 29.91 in - SSE 4.6 mph - N/A   Unknown
9:00 PM 52.2 °F - 41.2 °F 66% 29.86 in - SE 6.9 mph - N/A   Unknown
10:00 PM 49.1 °F - 39.6 °F 70% 29.88 in - SE 4.6 mph - N/A   Unknown
11:00 PM 48.9 °F - 38.8 °F 68% 29.86 in - SE 5.8 mph - N/A   Unknown
12:00 AM 46.8 °F - 37.0 °F 69% 29.83 in - ESE 4.6 mph - N/A   Unknown